This is the latest recevied weather packets stored in our database for station/object KE5VT. If no packets are shown the sender has not sent any weather packets the latest 10 day(s).
| Time | Temp. | Humidity | Pressure | Rain* | Wind** | Luminosity | Snow |
|---|---|---|---|---|---|---|---|
| 1787579740 | 25° C | 66% | 1012.4 hPa | 0 mm | - | 61 W/m² | - |
| 1787579435 | 24.44° C | 68% | 1012.5 hPa | 0 mm | - | 34 W/m² | - |
| 1787579131 | 24.44° C | 68% | 1012.5 hPa | 0 mm | - | 33 W/m² | - |
| 1787578826 | 24.44° C | 71% | 1012.6 hPa | 0 mm | - | 42 W/m² | - |
| 1787578521 | 24.44° C | 72% | 1012.7 hPa | 0 mm | - | 64 W/m² | - |
| 1787578221 | 25° C | 70% | 1012.7 hPa | 0 mm | - | 33 W/m² | - |
| 1787577917 | 24.44° C | 69% | 1012.7 hPa | 0 mm | - | 34 W/m² | - |
| 1787577612 | 23.89° C | 70% | 1012.7 hPa | 0 mm | - | 30 W/m² | - |
| 1787577308 | 23.89° C | 71% | 1012.5 hPa | 0 mm | - | 33 W/m² | - |
| 1787577004 | 23.89° C | 71% | 1012.6 hPa | 0 mm | - | 31 W/m² | - |
| 1787576699 | 23.89° C | 72% | 1012.6 hPa | 0 mm | - | 28 W/m² | - |
| 1787576395 | 23.33° C | 74% | 1012.5 hPa | 0 mm | - | 27 W/m² | - |
| 1787576090 | 23.33° C | 74% | 1012.4 hPa | 0 mm | - | 26 W/m² | - |
| 1787575785 | 22.78° C | 75% | 1012.5 hPa | 0 mm | - | 26 W/m² | - |
| 1787575482 | 22.78° C | 76% | 1012.6 hPa | 0 mm | - | 25 W/m² | - |
| 1787575177 | 22.78° C | 77% | 1012.7 hPa | 0 mm | - | 25 W/m² | - |
| 1787574876 | 22.22° C | 78% | 1012.5 hPa | 0 mm | - | 24 W/m² | - |
| 1787574571 | 22.22° C | 78% | 1012.7 hPa | 0 mm | - | 24 W/m² | - |
| 1787574271 | 22.22° C | 78% | 1012.6 hPa | 0 mm | - | 24 W/m² | - |
| 1787573965 | 21.67° C | 78% | 1012.4 hPa | 0 mm | - | 23 W/m² | - |
| 1787573665 | 21.67° C | 79% | 1012.5 hPa | 0 mm | - | 22 W/m² | - |
| 1787573360 | 21.67° C | 80% | 1012.5 hPa | 0 mm | - | 22 W/m² | - |
| 1787573057 | 21.67° C | 80% | 1012.6 hPa | 0 mm | - | 21 W/m² | - |
| 1787572752 | 21.67° C | 81% | 1012.5 hPa | 0 mm | - | 20 W/m² | - |
| 1787572448 | 21.67° C | 81% | 1012.6 hPa | 0 mm | - | 19 W/m² | - |
* Rain latest hour (hover to see other rain measurements)
** Current wind speed in m/s (hover to see current wind gust speed)